Current Version              Previous Version:    01  02  03  04  05  06  07  08  09  10  11  12  13  14  15  16  17  18  19  20  21  22  23  24  25  26  27  28  29  30  
   31  32  33  34  35  36  37  38  39  40  41  42  43  44  45  46  47  48  49  50  51  52  53  54  55  56  57  58  59  60  

[Printable]
215
ASUS44 KFWD 251303
RWRTX
NORTH TEXAS HOURLY WEATHER ROUNDUP
NATIONAL WEATHER SERVICE FORT WORTH TX
700 AM CST SUN JAN 25 2015

NOTE: "FAIR" INDICATES FEW OR NO CLOUDS BELOW 12,000 FEET WITH NO
SIGNIFICANT WEATHER AND/OR OBSTRUCTIONS TO VISIBILITY.

TXZ118-119-251400-
DALLAS/FORT WORTH METROPLEX

CITY           SKY/WX    TMP DP  RH WIND       PRES   REMARKS
DFW AIRPORT    PTCLDY    47  35  63 NW12      29.96R
DALLAS LOVE    PTCLDY    41  35  79 W3        29.97R
FTW MEACHAM    CLEAR     46  35  65 NW13G20   29.97R
DAL-EXECUTIVE  CLEAR     47  35  63 W8        29.96R
FTW-ALLIANCE   CLEAR     44  35  70 NW13      29.98R WCI  38
FTW-SPINKS     CLEAR     43  36  75 W8        30.00R WCI  38
ARLINGTON      CLEAR     46  34  62 W6        29.97R
ADDISON        CLEAR     43  34  70 W3        29.97R
MESQUITE       CLEAR     45  36  70 W9        29.95  WCI  40
LANCASTER      CLEAR     45  34  65 W8        29.97R
$$

TXZ091>094-102>105-117-120-121-131>134-251400-
NORTH CENTRAL TEXAS

CITY           SKY/WX    TMP DP  RH WIND       PRES   REMARKS
SHRMAN/DENISON FAIR      38  36  91 W3        29.96R
BRIDGEPORT     CLEAR     43  36  75 W8        30.03R WCI  38
DECATUR        CLEAR     40  33  76 W8        30.00R WCI  35
DENTON         CLEAR     43  35  73 NW12      29.98R WCI  37
MCKINNEY       CLEAR     44  35  70 NW12      29.95R WCI  38
ROCKWALL       CLEAR     44  36  75 W6        29.94R
TERRELL        CLEAR     40  34  79 CALM      29.95S
WAXAHACHIE     CLEAR     43  37  77 W9        29.97S WCI  38
CLEBURNE       CLEAR     41  36  81 W9        30.00R WCI  35
GRANBURY       CLEAR     45  36  69 W7        30.02R
$$

TXZ083>090-098>101-113>116-127>130-139>142-154-155-251400-
WESTERN NORTH TEXAS

CITY           SKY/WX    TMP DP  RH WIND       PRES   REMARKS
WICHITA FALLS  CLEAR     44  34  67 NW12      30.01R WCI  38
WF-KICKAPOO    CLEAR     41  29  63 NW12G17   30.03S WCI  34
VERNON         CLEAR     44  29  56 NW14      30.07R WCI  37
ABILENE        PTCLDY    40  31  70 NW9       30.09R WCI  34
ABILENE-DYESS  PTCLDY    41  31  69 NW10      30.09R WCI  34
BRECKENRIDGE   CLEAR     42  33  70 W7        30.07R WCI  38
MINERAL WELLS  FAIR      41  33  73 W9        30.01R WCI  35
STEPHENVILLE   CLEAR     46  33  61 NW8       30.03R
COMANCHE       CLEAR     44  34  67 NW8       30.05R WCI  40
BROWNWOOD      CLEAR     37  32  81 N7        30.06R WCI  32
COLEMAN        CLEAR     45  34  66 NW10      30.07R WCI  40
BRADY          CLEAR     43  32  65 NW10      30.06R WCI  37
$$

TXZ143>147-156>162-174-175-251400-
CENTRAL TEXAS

CITY           SKY/WX    TMP DP  RH WIND       PRES   REMARKS
WACO           CLEAR     37  34  89 W5        30.00R WCI  33
WACO-TSTC      CLEAR     36  34  93 W6        30.00  WCI  31
WACO-MCGREGOR  CLEAR     39  32  75 W7        30.01R WCI  34
HILLSBORO      CLEAR     39  34  81 NW5       29.99R WCI  36
CORSICANA      CLEAR     41  35  79 W8        29.98R WCI  36
MEXIA          CLEAR     41  36  80 W8        29.97R WCI  36
HEARNE         CLEAR     34  32  92 CALM      30.01R
CAMERON        CLEAR     42  37  82 SW6       30.01R WCI  38
TEMPLE         CLEAR     43  32  65 W7        29.99R WCI  39
KILLEEN        CLEAR     47  34  59 W13       30.01R
KILLEEN-SKYLRK CLEAR     45  30  57 W7        29.99R
FORT HOOD      CLEAR     45  35  68 MISG      30.01R
GATESVILLE     CLEAR     43  36  75 W7        30.04R WCI  39
HAMILTON       CLEAR     46  34  61 NW13      30.02R
LAMPASAS       CLEAR     48  37  65 W8        30.02R
$$

TXZ095>097-106>112-122>126-135>138-148>153-164>167-251400-
EAST TEXAS

CITY           SKY/WX    TMP DP  RH WIND       PRES   REMARKS
PARIS          CLEAR     41  34  75 W5        29.90S WCI  38
SULPHUR SPRNGS CLEAR     41  34  77 SW7       29.94S WCI  36
MOUNT PLEASANT CLEAR     45  37  74 W9        29.92S WCI  40
GILMER         CLEAR     44  36  72 SW3       29.92S
MINEOLA        CLEAR     45  37  76 SW7       29.93S
TYLER          CLEAR     44  35  70 W12       29.94R WCI  38
LONGVIEW       CLEAR     41  34  76 SW6       29.93R WCI  37
MARSHALL       CLEAR     36  34  91 S3        29.94R
ATHENS         CLEAR     32  32 100 CALM      29.96S
PALESTINE      CLEAR     38  35  89 CALM      29.98S
HENDERSON      CLEAR     34  34  99 CALM      29.95R
NACOGDOCHES    CLEAR     37  30  75 CALM      29.96S
LUFKIN         CLEAR     41  34  76 CALM      29.97S
$$

SUPPLEMENTAL OBSERVATIONS (CENTRAL)

CITY           SKY/WX    TMP DP  RH WIND       PRES   REMARKS
$$

SUPPLEMENTAL OBSERVATIONS (WEST)

CITY           SKY/WX    TMP DP  RH WIND       PRES   REMARKS
$$

SUPPLEMENTAL OBSERVATIONS (EAST)

CITY           SKY/WX    TMP DP  RH WIND       PRES   REMARKS
$$

SUPPLEMENTAL OBSERVATIONS ARE A COLLECTION OF AUTOMATED INSTRUMENTS
THAT ARE MAINTAINED BY A VARIETY OF FEDERAL AND STATE AGENCIES.
CERTAIN ELEMENTS...SUCH AS HUMIDITY VALUES AND SUSTAINED WIND
SPEEDS...MAY BE APPROXIMATED.